Regional Weather Roundup
Issued by NWS

Home | Current Version | Previous Version | Graphics & Text | Print | Product List | Glossary On
Versions: 1 2 3 4 5 6 7 8 9 10 11 12 13 14 15 16 17 18 19 20 21 22 23 24 25 26 27 28 29 30 31 32 33 34 35 36 37 38 39 40 41 42 43 44 45 46 47 48 49 50
435
ASUS43 KFSD 222302
RWRSD

WEATHER ROUNDUP FOR SOUTH DAKOTA
NATIONAL WEATHER SERVICE SIOUX FALLS SD
600 PM CDT TUE AUG 22 2017

NOTE: "FAIR" INDICATES FEW OR NO CLOUDS BELOW 12,000 FEET WITH NO
SIGNIFICANT WEATHER AND/OR OBSTRUCTIONS TO VISIBILITY.


SDZ001>005-009-010-012>017-230000-
NORTHWEST AND NORTH CENTRAL SOUTH DAKOTA

CITY           SKY/WX    TMP DP  RH WIND       PRES   REMARKS
BUFFALO          N/A     83  39  21 VRB3      30.06F
FAITH            N/A     81  43  26 VRB3      30.13F
MOBRIDGE       SUNNY     79  47  32 CALM      30.11F
$$

SDZ012>016-024>037-041>051-057-063-072>074-230000-
SOUTHWEST AND SOUTH CENTRAL SOUTH DAKOTA

CITY           SKY/WX    TMP DP  RH WIND       PRES   REMARKS
RAPID CTY ARPT SUNNY     84  49  29 SE14      30.11F
PIERRE         SUNNY     79  47  32 E8        30.12F
CUSTER         MOSUNNY   73  47  39 S9        30.25F
ELLSWORTH AFB  SUNNY     84  48  27 SE13      30.11F
PHILIP         SUNNY     86  44  23 CALM      30.10F
PINE RIDGE     SUNNY     84  48  28 S10       30.15F
SPEARFISH      LGT RAIN  82  43  24 E10       30.17S
WINNER         FAIR      81  50  33 NE5       30.16F
$$

SDZ004>011-016>023-039-040-230000-
NORTHEAST SOUTH DAKOTA

CITY           SKY/WX    TMP DP  RH WIND       PRES   REMARKS
ABERDEEN       SUNNY     77  42  28 N14       30.12F
WATERTOWN      SUNNY     71  46  40 NW14G22   30.13S
BROOKINGS      SUNNY     71  47  42 N12       30.14F
SISSETON         N/A     74  50  42 NW10      30.09S
$$

SDZ017-020-022-023-036>040-048>070-230000-
SOUTHEAST SOUTH DAKOTA

CITY           SKY/WX    TMP DP  RH WIND       PRES   REMARKS
SIOUX FALLS    SUNNY     75  49  39 NW9       30.14F
HURON          SUNNY     76  46  34 N9        30.13F
CHAMBERLAIN    SUNNY     79  53  40 S6        30.15F
MITCHELL       SUNNY     77  50  38 NW7       30.14F
YANKTON        MOSUNNY   75  47  36 MISG      30.16F
$$

ABBREVIATIONS USED IN REMARKS
   TC - TEMPERATURE IN CELSIUS
  WCI - WIND CHILL INDEX
   HX - HEAT INDEX
  VSB - VISIBILITY





USA.gov is the U.S. government's official web portal to all federal, state and local government web resources and services.